This is the latest recevied weather packets stored in our database for station/object XE2KK-10. If no packets are shown the sender has not sent any weather packets the latest 10 day(s).
| Time | Temp. | Humidity | Pressure | Rain* | Wind** | Luminosity | Snow |
|---|---|---|---|---|---|---|---|
| 1778161452 | 24.44° C | 83% | 1014.4 hPa | 0 mm | - | 170 W/m² | - |
| 1778161153 | 24.44° C | 83% | 1014.4 hPa | 0 mm | - | 147 W/m² | - |
| 1778160853 | 24.44° C | 84% | 1014.4 hPa | 0 mm | - | 145 W/m² | - |
| 1778160553 | 24.44° C | 83% | 1014.2 hPa | 0 mm | - | 134 W/m² | - |
| 1778160253 | 24.44° C | 84% | 1014.4 hPa | 0 mm | - | 115 W/m² | - |
| 1778159952 | 24.44° C | 84% | 1014.4 hPa | 0 mm | - | 108 W/m² | - |
| 1778159652 | 24.44° C | 84% | 1014.1 hPa | 0 mm | - | 99 W/m² | - |
| 1778159353 | 24.44° C | 84% | 1014.2 hPa | 0 mm | - | 85 W/m² | - |
| 1778159052 | 24.44° C | 84% | 1014.2 hPa | 0 mm | - | 78 W/m² | - |
| 1778158752 | 24.44° C | 84% | 1014.1 hPa | 0 mm | - | 66 W/m² | - |
| 1778158452 | 24.44° C | 83% | 1014.2 hPa | 0 mm | - | 58 W/m² | - |
| 1778158153 | 24.44° C | 83% | 1013.8 hPa | 0 mm | - | 50 W/m² | - |
| 1778157853 | 24.44° C | 82% | 1013.8 hPa | 0 mm | - | 43 W/m² | - |
| 1778157553 | 24.44° C | 82% | 1013.8 hPa | 0 mm | - | 35 W/m² | - |
| 1778157252 | 24.44° C | 82% | 1013.6 hPa | 0 mm | - | 29 W/m² | - |
| 1778156952 | 24.44° C | 82% | 1013.6 hPa | 0 mm | - | 22 W/m² | - |
| 1778156653 | 24.44° C | 82% | 1013.7 hPa | 0 mm | - | 13 W/m² | - |
| 1778156353 | 24.44° C | 82% | 1013.8 hPa | 0 mm | - | 9 W/m² | - |
| 1778156053 | 24.44° C | 82% | 1013.8 hPa | 0 mm | - | 6 W/m² | - |
| 1778155753 | 24.44° C | 82% | 1013.5 hPa | 0 mm | - | 4 W/m² | - |
| 1778155452 | 24.44° C | 81% | 1013.6 hPa | 0 mm | - | 1 W/m² | - |
| 1778155152 | 24.44° C | 81% | 1013.6 hPa | 0 mm | - | 0 W/m² | - |
| 1778154853 | 24.44° C | 81% | 1013.6 hPa | 0 mm | - | 0 W/m² | - |
| 1778154553 | 24.44° C | 81% | 1013.6 hPa | 0 mm | - | 0 W/m² | - |
| 1778154253 | 25° C | 80% | 1013.3 hPa | 0 mm | - | 0 W/m² | - |
* Rain latest hour (hover to see other rain measurements)
** Current wind speed in m/s (hover to see current wind gust speed)